Regional Weather Roundup
Issued by NWS

Home | Current Version | Previous Version | Graphics & Text | Print | Product List | Glossary On
Versions: 1 2 3 4 5 6 7 8 9 10 11 12 13 14 15 16 17 18 19 20 21 22 23 24 25 26 27 28 29 30 31 32 33 34 35 36 37 38 39 40 41 42 43 44 45 46 47 48 49 50
000
ASUS43 KDMX 271507
RWRIA

WEATHER ROUNDUP FOR IOWA
NATIONAL WEATHER SERVICE DES MOINES IA
1000 AM CDT MON APR 27 2015

NOTE: "FAIR" INDICATES FEW OR NO CLOUDS BELOW 12,000 FEET WITH NO
SIGNIFICANT WEATHER AND/OR OBSTRUCTIONS TO VISIBILITY.

* - THESE STATIONS ARE NOT NWS STATIONS...THUS NOT UNDER NWS
QUALITY CONTROL.  THEY ALSO DO NOT REPORT WEATHER SUCH
AS PRECIPITATION OR FOG.

IAZ001>003-012>014-020>022-031>034-043>046-271600-
   NORTHWEST IOWA

CITY           SKY/WX    TMP DP  RH WIND       PRES   REMARKS
CARROLL *      SUNNY     55  36  47 N10       30.21R
CHEROKEE *     SUNNY     55  36  47 N5        30.22F
DENISON *      SUNNY     54  36  50 NE7       30.20S
LE MARS *      SUNNY     55  32  41 NE5       30.24S
ORANGE CITY *  SUNNY     57  30  35 CALM      30.23S
SHELDON *      SUNNY     59  25  27 N8        30.22S
SIOUX CITY     SUNNY     57  34  41 CALM      30.23R
SPENCER        SUNNY     58  25  28 N7        30.23S
STORM LAKE *   SUNNY     55  30  38 N10       30.23R
$$

IAZ055>058-069>071-079>083-090>094-271600-
   SOUTHWEST IOWA

CITY           SKY/WX    TMP DP  RH WIND       PRES   REMARKS
ATLANTIC *     SUNNY     55  34  44 NE9       30.21S
AUDUBON *      SUNNY     57  34  41 N8        30.21S
CLARINDA *     SUNNY     55  41  58 N8        30.21S
COUNCIL BLFS * SUNNY     55  37  50 N6        30.22R
CRESTON *      SUNNY     55  32  41 NE9       30.20R
HARLAN  *      SUNNY     54  37  54 N6        30.25R
LAMONI         SUNNY     56  35  45 N12       30.19R
RED OAK *      SUNNY     55  39  54 VRB3      30.21S
SHENANDOAH *   SUNNY     57  37  47 N9        30.21S
$$

IAZ047>049-059>061-072>074-084-271600-
   CENTRAL IOWA

CITY           SKY/WX    TMP DP  RH WIND       PRES   REMARKS
AMES           SUNNY     54  35  48 N7        30.20R
ANKENY *       SUNNY     54  37  54 N8        30.19R
CHARITON *     SUNNY     55  37  50 N10       30.17R
DES MOINES     MOSUNNY   58  33  39 NE6       30.19R
GRINNELL*      SUNNY     50  36  57 NE7       30.18S
KNOXVILLE *    SUNNY     54  34  47 N7        30.16R
MARSHALLTOWN   SUNNY     52  35  52 N10       30.18S
PELLA *        SUNNY     55  41  58 N7        30.19R
PERRY *          N/A     55  37  50 N8        30.20R
$$

IAZ004>006-015-016-023>025-035-036-271600-
   NORTH CENTRAL IOWA

CITY           SKY/WX    TMP DP  RH WIND       PRES   REMARKS
ALGONA *       SUNNY     54  30  40 NE8       30.23R
CLARION *      SUNNY     54  32  43 NE8       30.22R
ESTHERVILLE    SUNNY     54  30  40 N7        30.23R
FORT DODGE *   SUNNY     54  34  47 N9        30.22S
MASON CITY     SUNNY     52  32  46 NE6       30.23R
FOREST CITY *  SUNNY     50  32  50 NE5       30.22R
IOWA FALLS *     N/A     52  34  50 NE8       30.21S
$$

IAZ007>011-017>019-026>030-037>042-050>054-066-271600-
   NORTHEAST IOWA

CITY           SKY/WX    TMP DP  RH WIND       PRES   REMARKS
CEDAR RAPIDS   SUNNY     51  37  58 E8        30.18R
CHARLES CITY * SUNNY     52  30  43 CALM      30.22S
CLINTON *      SUNNY     52  32  46 NE10      30.20S
DECORAH *      SUNNY     50  30  46 CALM      30.21R
DUBUQUE        SUNNY     51  32  48 NE7       30.19S
MONTICELLO *   SUNNY     52  32  46 VRB7G14   30.19S
OELWEIN *      SUNNY     52  34  50 CALM      30.21S
WATERLOO       SUNNY     51  33  50 E6        30.20S
$$

IAZ064-065-067-068-078-271600-
   EAST CENTRAL IOWA

CITY           SKY/WX    TMP DP  RH WIND       PRES   REMARKS
DAVENPORT      SUNNY     52  34  50 NE10      30.18R
IOWA CITY      SUNNY     53  38  56 E9        30.19R
MT. PLEASANT * SUNNY     52  37  58 NE10      30.16R
MUSCATINE *    SUNNY     54  36  50 NE10      30.18R
QUAD CITIES    SUNNY     54  34  46 E8        30.17R
$$

IAZ062-063-075>077-085>089-095>099-271600-
   SOUTHEAST IOWA

CITY           SKY/WX    TMP DP  RH WIND       PRES   REMARKS
BURLINGTON     SUNNY     54  37  52 E8        30.14R
FAIRFIELD *    SUNNY     54  39  58 N9        30.16R
FORT MADISON * SUNNY     55  37  50 E10       30.15R
KEOKUK *       SUNNY     55  36  47 N10       30.13R
OSKALOOSA *      N/A     52  36  54 N10       30.17R
CENTERVILLE *  SUNNY     57  34  41 N10       30.18R
OTTUMWA        SUNNY     54  38  54 N8        30.16S
WASHINGTON *   SUNNY     52  37  58 NE12      30.16S
$$

ABBREVIATIONS USED IN REMARKS
   TC - TEMPERATURES IN CELSIUS
  WCI - WIND CHILL INDEX
   HX - HEAT INDEX
  VSB - VISIBILITY
$$



USA.gov is the U.S. government's official web portal to all federal, state and local government web resources and services.